Location: *
(46.1006°N, 1.8394°E)
Time: 21:10:13
(UTC+00:00)

RESURS DK-1 - Pass Details

Date: 20 September 2019
Orbit: 558 x 560 km, 69.9° (Epoch: 20 October)

Event Time Altitude Azimuth Distance (km) Brightness Sun altitude
Rises 21:02:35 0° 329° (NNW) 2,755 6.9 -30.8°
Reaches altitude 10° 21:04:49 10° 326° (NW) 1,855 5.8 -31.1°
Enters shadow 21:06:42 26° 319° (NW) 1,136 4.5 -31.4°
